SCP
0 0 0 0 0 0 0 0 0 0 0 0 0 0 0 0 0 0 -0 -0 -0 -0 -0 -0 -0 -0 -0 -0 -0 -0 -0 0 0 0 0 0 0 0 0 0 0 0 0 0
0 0 0 0 0 0 0 0 0 0 0 0 0 0 0 0 0 0 -0 -0 -0 -0 -0 -0 -0 0 0 0 0 0 0 0 0 0 0 0 0 0 0 0 0 0 0 0
0 0 0 0 0 0 0 0 0 0 0 0 0 0 0 0 0 -0 -0 -0 -0 -0 -0 -0 -0 0 0 0 0 0 0 0 0 0 0 0 0 0 0 0 0 0 0 0
0 0 0 0 0 0 0 0 0 0 0 0 0 0 0 0 0 0 0 0 0 -0 -0 -0 -0 -0 -0 0 0 0 -0 -0 -0 0 0 0 0 0 0 0 0 0 0 0
0 0 0 0 0 0 0 0 0 0 0 0 0 0 -0 0 0 -0 -0 -0 0 -0 0 0 0 0 -0 0 0 0 -0 -0 -0 0 0 0 0 0 0 0 -0 0 0 0
0 0 0 0 0 0 0 0 0 0 -0 -0 0 -0 -0 0 0 0 0 -0 -0 -0 -0 0 0 0 0 -0 0 0 -0 -0 0 0 0 -0 0 0 0 -0 0 0 0 -0
0 0 0 0 0 0 0 0 0 0 0 0 -0 0 -0 -0 -0 -0 -0 -0 -0 -0 -0 0 0 0 0 0 0 -0 0 -0 0 0 0 -0 -0 0 0 0 0 -0 -0 0
0 0 0 0 0 0 0 0 0 0 0 -0 -0 -0 -0 -0 -0 -0 -0 -0 -0 -0 0 0 0 0 0 0 0 -0 0 0 0 0 0 -0 -0 0 -0 0 0 -0 -0 -0
0 0 0 0 0 0 0 0 0 -0 -0 -0 -0 -0 0 0 -0 -0 0 -0 -0 -0 -0 0 0 0 0 0 0 0 0 0 0 -0 -0 -0 -0 -0 0 -0 0 0 -0 0
0 0 0 0 0 0 0 0 0 0 0 -0 -0 -0 -0 0 -0 -0 0 0 0 0 0 0 0 0 0 0 0 0 0 0 0 -0 -0 -0 0 0 -0 0 0 0 0 0
0 0 0 0 0 0 0 0 0 0 0 0 -0 0 0 0 -0 0 -0 0 0 0 0 0 0 0 0 0 0 0 0 0 0 0 -0 -0 0 0 0 0 0 0 0 0
0 0 0 0 0 0 -0 -0 0 0 0 0 0 0 0 0 -0 -0 -0 0 0 0 0 0 0 0 0 0 0 0 0 0 0 0 0 0 0 0 0 0 0 0 0 0
0 0 0 0 0 0 0 0 0 0 0 0 0 -0 -0 -0 0 -0 -0 0 0 -0 0 0 0 0 0 0 0 0 0 0 0 0 0 0 0 0 0 0 0 0 0 0
0 0 0 0 0 0 0 0 0 0 0 -0 -0 -0 -0 -0 -0 -0 0 0 0 0 0 0 0 0 0 0 0 0 0 0 0 0 0 0 0 0 0 0 0 0 0 0
0 0 0 0 0 0 0 0 -0 0 0 -0 0 -0 -0 -0 -0 0 0 0 0 0 0 0 0 0 0 0 0 0 0 0 0 0 0 0 0 0 0 0 0 0 0 0
0 0 0 0 0 0 -0 0 0 -0 -0 0 0 0 0 0 0 0 0 0 0 0 0 0 0 0 0 0 0 0 0 0 0 0 0 0 0 0 0 0 0 0 0 0
-0 -0 0 0 0 -0 0 0 0 -0 0 0 0 0 0 0 0 0 0 0 0 0 0 0 0 0 0 0 0 0 0 0 0 0 0 0 0 0 0 0 0 0 0 0
0 0 0 0 -0 0 -0 0 0 0 0 0 0 0 0 0 0 0 0 0 0 0 0 0 0 0 0 0 0 0 0 0 0 0 0 0 0 0 0 0 0 0 0 0
0 0 0 0 0 -0 0 0 0 0 0 0 0 0 0 0 0 0 0 0 0 0 0 0 0 0 0 0 0 0 0 0 0 0 0 0 0 0 0 0 0 0 0 0
0 0 0 0 0 -0 0 0 0 0 0 0 0 0 0 0 0 0 0 0 0 0 0 0 0 0 0 0 0 0 0 0 0 0 0 0 0 0 0 0 0 0 0 0
0 -0 0 0 0 0 0 0 0 0 0 0 0 0 0 0 0 0 0 0 0 0 0 0 0 0 0 0 0 0 0 0 0 0 0 0 0 0 0 0 0 0 0 0
-0 -0 0 0 0 0 0 0 0 0 0 0 0 0 0 0 0 0 0 0 0 -0 -0 0 0 0 0 0 0 0 0 0 0 0 0 0 0 0 0 0 0 0 0 0
-0 -0 0 0 0 0 0 0 0 0 0 0 0 0 0 0 0 0 0 0 0 -0 0 0 0 0 0 0 0 0 0 0 0 0 0 0 0 0 0 0 0 0 0 0
0 0 0 0 0 0 0 0 0 0 0 0 0 0 0 0 0 0 0 0 0 0 0 0 0 0 0 0 0 0 0 0 0 0 0 0 0 0 0 0 0 0 0 0
0 0 0 0 0 0 0 0 0 0 0 0 0 0 0 0 0 0 0 0 0 0 0 0 0 0 0 0 0 0 0 0 0 0 0 0 0 0 0 0 0 0 0 0
0 0 0 0 0 0 0 0 0 0 0 0 0 0 0 0 0 0 0 0 0 0 0 0 0 0 0 0 0 0 0 0 0 0 0 0 0 0 -0 -0 -0 0 0 -0
0 0 0 0 0 0 0 0 0 0 0 0 0 0 0 0 0 0 0 0 0 0 0 0 0 0 0 0 0 0 0 0 0 0 0 0 0 -0 -0 -0 -0 -0 -0 -0
Wind_Speed_500mb
15 28 33 35 38 33 28 39 23 50 35 31 30 31 33 22 22 41 49 58 55 53 57 55 48 39 37 31 27 31 33 37 38 40 43 24 27 25 22 23 23 24 22 21
11 16 9 16 33 25 27 35 33 40 42 25 38 15 14 18 37 47 54 56 56 47 51 46 38 31 28 26 21 29 35 42 44 40 36 28 21 16 20 19 18 20 26 29
9 10 26 17 10 5 9 8 10 12 14 21 17 10 17 40 52 53 59 59 45 52 54 40 37 33 29 23 19 21 25 38 43 33 29 23 15 17 12 15 15 21 24 27
8 18 5 12 5 3 5 11 7 22 23 17 14 26 43 57 64 53 60 62 66 67 65 67 68 61 50 37 22 22 30 38 37 23 21 18 14 11 8 12 12 28 39 40
5 10 20 18 4 6 6 25 9 7 19 40 43 39 47 52 38 63 70 68 59 67 64 66 60 53 52 51 37 31 36 35 35 16 20 14 13 14 17 21 37 43 44 45
4 6 9 6 0 34 7 11 2 33 38 45 32 25 30 58 71 73 65 63 67 60 53 50 50 46 44 47 42 40 34 31 23 19 19 12 22 26 29 41 51 52 49 40
7 10 14 4 21 17 5 9 37 48 45 29 25 44 77 82 75 70 69 64 63 56 56 51 45 42 43 36 33 26 27 18 19 16 16 19 26 29 45 56 57 53 52 54
5 7 14 3 31 3 17 51 48 36 52 63 63 71 74 74 76 72 71 71 65 62 59 54 44 36 35 27 17 12 19 14 16 12 18 25 32 53 59 55 52 60 64 57
10 11 23 60 54 60 56 45 43 62 64 65 66 65 78 77 72 67 68 69 54 72 51 41 37 32 27 22 20 10 13 17 17 20 29 39 56 64 57 55 59 60 59 52
5 14 29 42 57 52 49 67 73 70 69 61 66 77 73 75 65 76 63 76 62 52 45 38 30 28 21 24 32 17 17 27 31 36 49 63 62 51 51 58 56 55 50 48
16 35 40 43 46 61 71 77 70 63 63 71 68 66 77 69 76 68 78 59 48 47 39 33 25 27 28 33 37 31 36 38 43 55 67 65 61 56 53 51 48 49 51 51
11 32 37 53 66 76 73 65 60 71 65 61 66 67 72 63 74 66 54 45 46 39 25 31 35 41 42 44 47 48 48 52 57 61 65 65 69 64 55 57 48 47 48 54
25 44 57 66 67 61 67 68 65 67 65 68 56 53 53 65 52 39 22 6 16 44 51 52 55 52 51 55 50 47 59 63 65 67 72 74 72 69 79 58 50 49 48 51
56 54 51 48 66 70 62 66 65 69 50 49 46 45 44 38 34 10 13 30 49 61 65 66 62 60 57 55 52 60 65 70 74 74 75 75 74 76 67 61 64 59 52 47
38 54 62 70 67 58 63 64 55 48 47 46 39 34 28 30 28 26 37 47 59 65 63 61 62 61 54 53 59 70 78 81 80 78 78 82 77 69 68 67 68 67 56 45
59 62 57 53 57 56 63 49 42 42 43 40 33 23 18 25 41 44 47 52 56 58 57 58 57 52 50 60 71 79 84 87 84 88 87 77 73 71 69 70 68 59 49 42
52 54 50 53 50 56 48 39 31 33 36 29 16 15 30 31 36 41 46 45 47 48 47 51 57 53 54 67 79 88 93 89 89 89 84 80 73 72 72 69 64 53 43 33
46 49 53 55 47 42 39 28 28 28 23 12 14 23 29 30 37 41 43 44 51 53 50 49 53 57 64 75 84 94 90 94 90 89 83 73 71 70 68 63 54 47 43 34
50 50 51 39 29 25 22 26 23 13 10 15 17 26 30 36 37 41 43 48 48 53 50 49 52 64 78 87 91 84 91 90 88 85 76 73 71 66 62 55 47 42 36 34
53 48 36 23 18 19 22 19 11 15 12 17 23 30 39 41 42 41 44 51 54 57 54 53 61 72 83 92 86 84 85 84 85 82 75 71 66 61 55 49 44 40 37 38
51 37 27 26 16 14 15 12 16 15 15 20 27 36 41 44 42 47 55 59 54 55 61 66 70 83 79 81 81 81 82 84 81 76 71 66 61 56 51 45 42 40 40 41
40 20 25 25 19 17 18 19 19 16 18 23 29 34 38 40 48 55 56 60 51 54 68 72 76 76 80 81 80 79 81 80 75 70 64 59 55 53 48 43 41 40 43 44
29 17 21 23 13 14 17 20 20 21 25 26 29 33 41 47 51 59 64 54 54 62 72 74 73 73 75 74 75 78 77 72 68 62 58 54 51 48 46 43 44 45 44 41
16 19 18 13 12 17 22 21 21 25 30 28 29 36 44 55 56 52 56 55 53 69 73 70 64 69 69 70 73 75 72 67 62 58 54 49 47 46 46 47 48 45 39 38
13 18 12 18 20 18 21 22 26 29 33 34 33 35 43 50 58 55 60 66 66 69 67 62 64 62 60 67 70 68 64 58 55 54 51 49 50 50 47 45 44 42 36 37
14 15 13 15 14 15 25 26 31 33 36 40 39 39 50 57 70 66 70 72 66 60 60 60 59 57 60 65 64 59 55 53 51 49 48 49 51 48 46 46 43 39 36 37
11 16 14 15 17 22 23 27 36 40 40 46 54 51 63 72 70 66 62 60 56 55 55 56 55 58 61 60 56 52 50 49 46 46 47 48 46 45 47 45 42 39 37 36
Wind_Direction_500mb
241 267 279 273 276 270 246 249 249 273 275 276 295 293 294 295 313 324 328 329 334 335 333 323 307 294 296 304 315 322 328 333 331 322 316 313 317 317 313 304 298 281 272 243
277 264 296 288 280 272 253 261 258 263 273 276 277 302 304 311 326 318 315 323 323 322 323 315 314 309 299 295 312 323 322 324 324 318 312 310 321 321 321 300 283 254 231 218
267 348 317 295 267 271 269 281 304 287 310 326 300 307 307 318 317 307 315 315 312 316 317 295 299 306 313 319 331 327 323 316 313 315 307 304 301 323 303 269 243 210 190 182
287 328 329 239 340 112 318 284 353 289 290 300 313 310 304 302 305 304 307 303 301 300 298 293 292 287 285 288 294 316 323 316 314 306 294 292 291 299 246 208 190 157 147 143
255 277 274 289 103 348 326 299 320 358 340 319 304 303 296 302 307 309 302 298 291 297 293 292 292 288 283 272 273 284 299 319 317 273 262 276 241 206 184 180 155 142 131 122
352 254 270 262 278 323 298 274 255 341 318 300 296 301 302 313 308 306 305 301 301 299 295 289 283 284 280 273 255 269 295 316 310 258 233 231 194 176 164 146 131 124 112 105
255 263 282 182 337 336 47 268 306 313 306 303 304 289 298 306 303 302 302 302 304 299 296 293 287 278 274 275 257 270 284 294 273 238 216 207 178 162 146 135 124 116 110 100
254 262 278 328 348 58 279 303 305 307 308 299 296 297 302 301 299 302 304 305 302 295 292 288 281 268 264 257 239 251 266 236 234 204 190 169 159 142 137 130 121 114 105 99
214 236 274 301 299 305 309 295 308 309 306 303 298 300 301 300 302 302 303 301 289 294 285 272 266 259 248 226 201 201 210 211 195 171 153 149 146 138 132 120 113 110 107 106
298 260 259 289 304 312 299 313 308 304 304 305 299 303 300 303 302 305 301 296 299 288 274 263 241 234 217 202 207 204 194 189 164 158 145 143 141 129 124 119 115 116 116 107
254 279 290 289 304 305 303 309 309 304 302 297 304 302 305 302 307 302 306 306 295 278 261 241 205 190 176 180 189 186 189 167 155 149 145 140 134 129 118 114 116 119 113 105
268 295 291 294 306 310 310 308 305 304 304 307 306 303 305 305 305 314 320 309 290 264 222 179 169 159 163 173 176 175 167 158 154 146 141 139 129 122 112 114 119 110 105 113
273 293 298 302 312 312 308 311 308 311 311 310 310 308 303 308 322 337 328 351 111 136 145 148 148 153 162 165 169 169 162 152 144 144 143 136 133 129 121 123 115 111 111 112
303 308 307 309 306 314 308 313 312 313 316 318 318 314 315 324 333 296 91 116 120 128 136 144 149 154 159 162 164 162 152 146 145 145 138 135 130 124 124 126 120 115 117 109
305 312 304 314 310 307 318 314 318 320 326 328 326 326 338 346 64 111 122 124 129 133 141 145 147 147 153 156 159 154 147 143 144 140 137 134 130 128 127 124 123 121 120 112
321 316 318 306 313 319 319 323 321 325 326 329 337 350 8 95 117 125 128 133 133 132 137 140 140 141 145 152 155 147 143 143 143 139 136 133 135 134 130 126 120 118 117 114
320 319 322 322 322 322 322 321 325 324 321 330 357 24 121 131 127 127 131 132 129 133 138 136 135 140 148 153 146 144 145 142 140 137 136 139 137 133 129 123 120 120 115 120
323 322 320 323 321 324 331 335 328 325 326 7 32 123 142 135 129 130 134 135 133 133 135 133 133 140 148 148 146 145 143 140 140 140 141 137 134 131 126 123 122 121 122 117
332 331 327 332 337 346 347 347 344 352 42 63 108 145 144 129 131 127 130 129 128 127 130 131 136 141 144 147 147 146 143 144 144 143 139 134 130 128 128 126 127 123 117 113
338 334 339 343 358 356 352 354 26 62 68 112 138 140 131 130 130 130 137 127 129 127 130 132 136 142 148 147 150 150 148 145 142 142 140 134 130 131 131 130 125 119 116 114
339 345 357 4 358 1 6 49 77 63 99 125 139 139 132 132 131 133 134 131 132 134 132 132 137 146 148 150 151 149 148 146 144 143 140 136 135 135 134 131 125 119 116 116
343 359 21 23 17 51 49 76 80 87 105 121 127 133 132 126 132 132 128 125 135 144 140 143 148 151 152 153 151 150 150 147 144 142 139 137 138 138 136 132 126 123 123 118
349 355 12 34 38 63 75 80 101 112 118 123 126 133 127 131 136 133 128 133 139 144 142 142 150 151 154 156 154 152 150 148 145 143 142 142 142 139 135 133 130 126 123 122
2 7 20 33 74 78 84 91 106 107 116 121 129 137 139 137 133 134 131 137 142 145 143 150 154 151 156 155 153 152 151 149 146 145 143 142 140 138 136 134 131 127 127 130
30 41 78 79 78 86 98 107 114 119 121 124 127 135 137 136 135 136 135 140 144 142 144 151 154 152 156 153 151 150 149 146 146 144 143 145 141 137 137 135 131 127 134 130
44 37 98 94 99 112 126 126 125 129 126 123 123 130 135 139 131 131 133 137 142 143 143 148 151 153 152 150 149 148 147 146 143 144 147 146 141 140 139 136 132 135 136 129
63 75 105 82 101 112 140 137 136 135 133 131 129 134 141 134 131 132 132 136 138 138 142 148 149 148 147 148 149 150 147 144 145 148 150 145 143 144 141 137 138 137 133 127
Wind_Speed_850mb
15 28 33 35 38 33 28 39 23 50 35 31 30 31 33 22 22 41 49 58 55 53 57 55 48 39 37 31 27 31 33 37 38 40 43 24 27 25 22 23 23 24 22 21
11 16 9 16 33 25 27 35 33 40 42 25 38 15 14 18 37 47 54 56 56 47 51 46 38 31 28 26 21 29 35 42 44 40 36 28 21 16 20 19 18 20 26 29
9 10 26 17 10 5 9 8 10 12 14 21 17 10 17 40 52 53 59 59 45 52 54 40 37 33 29 23 19 21 25 38 43 33 29 23 15 17 12 15 15 21 24 27
8 18 5 12 5 3 5 11 7 22 23 17 14 26 43 57 64 53 60 62 66 67 65 67 68 61 50 37 22 22 30 38 37 23 21 18 14 11 8 12 12 28 39 40
5 10 20 18 4 6 6 25 9 7 19 40 43 39 47 52 38 63 70 68 59 67 64 66 60 53 52 51 37 31 36 35 35 16 20 14 13 14 17 21 37 43 44 45
4 6 9 6 0 34 7 11 2 33 38 45 32 25 30 58 71 73 65 63 67 60 53 50 50 46 44 47 42 40 34 31 23 19 19 12 22 26 29 41 51 52 49 40
7 10 14 4 21 17 5 9 37 48 45 29 25 44 77 82 75 70 69 64 63 56 56 51 45 42 43 36 33 26 27 18 19 16 16 19 26 29 45 56 57 53 52 54
5 7 14 3 31 3 17 51 48 36 52 63 63 71 74 74 76 72 71 71 65 62 59 54 44 36 35 27 17 12 19 14 16 12 18 25 32 53 59 55 52 60 64 57
10 11 23 60 54 60 56 45 43 62 64 65 66 65 78 77 72 67 68 69 54 72 51 41 37 32 27 22 20 10 13 17 17 20 29 39 56 64 57 55 59 60 59 52
5 14 29 42 57 52 49 67 73 70 69 61 66 77 73 75 65 76 63 76 62 52 45 38 30 28 21 24 32 17 17 27 31 36 49 63 62 51 51 58 56 55 50 48
16 35 40 43 46 61 71 77 70 63 63 71 68 66 77 69 76 68 78 59 48 47 39 33 25 27 28 33 37 31 36 38 43 55 67 65 61 56 53 51 48 49 51 51
11 32 37 53 66 76 73 65 60 71 65 61 66 67 72 63 74 66 54 45 46 39 25 31 35 41 42 44 47 48 48 52 57 61 65 65 69 64 55 57 48 47 48 54
25 44 57 66 67 61 67 68 65 67 65 68 56 53 53 65 52 39 22 6 16 44 51 52 55 52 51 55 50 47 59 63 65 67 72 74 72 69 79 58 50 49 48 51
56 54 51 48 66 70 62 66 65 69 50 49 46 45 44 38 34 10 13 30 49 61 65 66 62 60 57 55 52 60 65 70 74 74 75 75 74 76 67 61 64 59 52 47
38 54 62 70 67 58 63 64 55 48 47 46 39 34 28 30 28 26 37 47 59 65 63 61 62 61 54 53 59 70 78 81 80 78 78 82 77 69 68 67 68 67 56 45
59 62 57 53 57 56 63 49 42 42 43 40 33 23 18 25 41 44 47 52 56 58 57 58 57 52 50 60 71 79 84 87 84 88 87 77 73 71 69 70 68 59 49 42
52 54 50 53 50 56 48 39 31 33 36 29 16 15 30 31 36 41 46 45 47 48 47 51 57 53 54 67 79 88 93 89 89 89 84 80 73 72 72 69 64 53 43 33
46 49 53 55 47 42 39 28 28 28 23 12 14 23 29 30 37 41 43 44 51 53 50 49 53 57 64 75 84 94 90 94 90 89 83 73 71 70 68 63 54 47 43 34
50 50 51 39 29 25 22 26 23 13 10 15 17 26 30 36 37 41 43 48 48 53 50 49 52 64 78 87 91 84 91 90 88 85 76 73 71 66 62 55 47 42 36 34
53 48 36 23 18 19 22 19 11 15 12 17 23 30 39 41 42 41 44 51 54 57 54 53 61 72 83 92 86 84 85 84 85 82 75 71 66 61 55 49 44 40 37 38
51 37 27 26 16 14 15 12 16 15 15 20 27 36 41 44 42 47 55 59 54 55 61 66 70 83 79 81 81 81 82 84 81 76 71 66 61 56 51 45 42 40 40 41
40 20 25 25 19 17 18 19 19 16 18 23 29 34 38 40 48 55 56 60 51 54 68 72 76 76 80 81 80 79 81 80 75 70 64 59 55 53 48 43 41 40 43 44
29 17 21 23 13 14 17 20 20 21 25 26 29 33 41 47 51 59 64 54 54 62 72 74 73 73 75 74 75 78 77 72 68 62 58 54 51 48 46 43 44 45 44 41
16 19 18 13 12 17 22 21 21 25 30 28 29 36 44 55 56 52 56 55 53 69 73 70 64 69 69 70 73 75 72 67 62 58 54 49 47 46 46 47 48 45 39 38
13 18 12 18 20 18 21 22 26 29 33 34 33 35 43 50 58 55 60 66 66 69 67 62 64 62 60 67 70 68 64 58 55 54 51 49 50 50 47 45 44 42 36 37
14 15 13 15 14 15 25 26 31 33 36 40 39 39 50 57 70 66 70 72 66 60 60 60 59 57 60 65 64 59 55 53 51 49 48 49 51 48 46 46 43 39 36 37
11 16 14 15 17 22 23 27 36 40 40 46 54 51 63 72 70 66 62 60 56 55 55 56 55 58 61 60 56 52 50 49 46 46 47 48 46 45 47 45 42 39 37 36
Wind_Direction_850mb
241 267 279 273 276 270 246 249 249 273 275 276 295 293 294 295 313 324 328 329 334 335 333 323 307 294 296 304 315 322 328 333 331 322 316 313 317 317 313 304 298 281 272 243
277 264 296 288 280 272 253 261 258 263 273 276 277 302 304 311 326 318 315 323 323 322 323 315 314 309 299 295 312 323 322 324 324 318 312 310 321 321 321 300 283 254 231 218
267 348 317 295 267 271 269 281 304 287 310 326 300 307 307 318 317 307 315 315 312 316 317 295 299 306 313 319 331 327 323 316 313 315 307 304 301 323 303 269 243 210 190 182
287 328 329 239 340 112 318 284 353 289 290 300 313 310 304 302 305 304 307 303 301 300 298 293 292 287 285 288 294 316 323 316 314 306 294 292 291 299 246 208 190 157 147 143
255 277 274 289 103 348 326 299 320 358 340 319 304 303 296 302 307 309 302 298 291 297 293 292 292 288 283 272 273 284 299 319 317 273 262 276 241 206 184 180 155 142 131 122
352 254 270 262 278 323 298 274 255 341 318 300 296 301 302 313 308 306 305 301 301 299 295 289 283 284 280 273 255 269 295 316 310 258 233 231 194 176 164 146 131 124 112 105
255 263 282 182 337 336 47 268 306 313 306 303 304 289 298 306 303 302 302 302 304 299 296 293 287 278 274 275 257 270 284 294 273 238 216 207 178 162 146 135 124 116 110 100
254 262 278 328 348 58 279 303 305 307 308 299 296 297 302 301 299 302 304 305 302 295 292 288 281 268 264 257 239 251 266 236 234 204 190 169 159 142 137 130 121 114 105 99
214 236 274 301 299 305 309 295 308 309 306 303 298 300 301 300 302 302 303 301 289 294 285 272 266 259 248 226 201 201 210 211 195 171 153 149 146 138 132 120 113 110 107 106
298 260 259 289 304 312 299 313 308 304 304 305 299 303 300 303 302 305 301 296 299 288 274 263 241 234 217 202 207 204 194 189 164 158 145 143 141 129 124 119 115 116 116 107
254 279 290 289 304 305 303 309 309 304 302 297 304 302 305 302 307 302 306 306 295 278 261 241 205 190 176 180 189 186 189 167 155 149 145 140 134 129 118 114 116 119 113 105
268 295 291 294 306 310 310 308 305 304 304 307 306 303 305 305 305 314 320 309 290 264 222 179 169 159 163 173 176 175 167 158 154 146 141 139 129 122 112 114 119 110 105 113
273 293 298 302 312 312 308 311 308 311 311 310 310 308 303 308 322 337 328 351 111 136 145 148 148 153 162 165 169 169 162 152 144 144 143 136 133 129 121 123 115 111 111 112
303 308 307 309 306 314 308 313 312 313 316 318 318 314 315 324 333 296 91 116 120 128 136 144 149 154 159 162 164 162 152 146 145 145 138 135 130 124 124 126 120 115 117 109
305 312 304 314 310 307 318 314 318 320 326 328 326 326 338 346 64 111 122 124 129 133 141 145 147 147 153 156 159 154 147 143 144 140 137 134 130 128 127 124 123 121 120 112
321 316 318 306 313 319 319 323 321 325 326 329 337 350 8 95 117 125 128 133 133 132 137 140 140 141 145 152 155 147 143 143 143 139 136 133 135 134 130 126 120 118 117 114
320 319 322 322 322 322 322 321 325 324 321 330 357 24 121 131 127 127 131 132 129 133 138 136 135 140 148 153 146 144 145 142 140 137 136 139 137 133 129 123 120 120 115 120
323 322 320 323 321 324 331 335 328 325 326 7 32 123 142 135 129 130 134 135 133 133 135 133 133 140 148 148 146 145 143 140 140 140 141 137 134 131 126 123 122 121 122 117
332 331 327 332 337 346 347 347 344 352 42 63 108 145 144 129 131 127 130 129 128 127 130 131 136 141 144 147 147 146 143 144 144 143 139 134 130 128 128 126 127 123 117 113
338 334 339 343 358 356 352 354 26 62 68 112 138 140 131 130 130 130 137 127 129 127 130 132 136 142 148 147 150 150 148 145 142 142 140 134 130 131 131 130 125 119 116 114
339 345 357 4 358 1 6 49 77 63 99 125 139 139 132 132 131 133 134 131 132 134 132 132 137 146 148 150 151 149 148 146 144 143 140 136 135 135 134 131 125 119 116 116
343 359 21 23 17 51 49 76 80 87 105 121 127 133 132 126 132 132 128 125 135 144 140 143 148 151 152 153 151 150 150 147 144 142 139 137 138 138 136 132 126 123 123 118
349 355 12 34 38 63 75 80 101 112 118 123 126 133 127 131 136 133 128 133 139 144 142 142 150 151 154 156 154 152 150 148 145 143 142 142 142 139 135 133 130 126 123 122
2 7 20 33 74 78 84 91 106 107 116 121 129 137 139 137 133 134 131 137 142 145 143 150 154 151 156 155 153 152 151 149 146 145 143 142 140 138 136 134 131 127 127 130
30 41 78 79 78 86 98 107 114 119 121 124 127 135 137 136 135 136 135 140 144 142 144 151 154 152 156 153 151 150 149 146 146 144 143 145 141 137 137 135 131 127 134 130
44 37 98 94 99 112 126 126 125 129 126 123 123 130 135 139 131 131 133 137 142 143 143 148 151 153 152 150 149 148 147 146 143 144 147 146 141 140 139 136 132 135 136 129
63 75 105 82 101 112 140 137 136 135 133 131 129 134 141 134 131 132 132 136 138 138 142 148 149 148 147 148 149 150 147 144 145 148 150 145 143 144 141 137 138 137 133 127